TITAN 3C TRANSTAGE DEB, 26049

Orbit data source: Space-Track

TITAN 3C TRANSTAGE DEB, 26049 is space debris in HEO originally from a launch on Tue, 21 Dec 1965 UTC launched from the Air Force Eastern Test Range (AFETR). Debris objects in space refer to the collection of defunct objects orbiting the Earth. Examples of debris include non-operational satellites, rocket bodies, and fragments generated from explosions, collisions, or faulty payload assembly.

Loading next visibility...
Identifier
26049, 1965-108AH
Orbit
HEO
Country
Flag of USUS
Related business
Manufacturer
Unknown
Mission
Spacecraft
Bus & Motor
Unknown
Mass
Unknown
Launch date (UTC)
1965-12-21 (61 years ago)
Launch vehicle
Unknown
Launch site
Air Force Eastern Test Range (AFETR)
Object type
Payload
Rocket body
Debris
Shape & HBR
Unknown shape, 0.1 m
Radar Cross Section
Medium (>0.1 m² and <1 m²)

Expand to show TLE details & history
Last TLE update: 3 months ago

TLE from 3 months ago
0 TITAN 3C TRANSTAGE DEB
1 26049U 65108AH  26163.71386265  .00039503  00000-0  29113-1 0  9994
2 26049  27.2548 197.6605 4740588 217.4119  97.6518  5.89214007109941
Epoch: 2026-06-12T17:07Z
TLE epoch observation values (Epoch: 2026-06-12T17:07:57.732Z)
Latitude
-0.00004°
Longitude
39.63831°
Altitude
9,723.254 km
Speed
4.328 km/s
True Right ascension
13h 10m 40s
True Declination
0° 00' 00"
Sunlit
Object was in daylight at epoch
Visualization orbit readout
Latitude
Unknown
Longitude
Unknown
Altitude
Unknown
Speed
Unknown
Apparent Right ascension
Unknown
Apparent Declination
Unknown
Sunlit
N/A
Visualization observer readout
Local Sidereal Time
20:05:59
Azimuth
Unknown
Elevation
Unknown
Doppler factor
Unknown
Orbital elements
Apogee altitude
12,713.775 km
Perigee altitude
433.819 km
Semi-major axis
12,951.934 km
Eccentricity
0.47406
Inclination
27.2548°
RAAN
197.6605°
Arg. of periapsis
217.4119°
True anomaly
142.61691°
Mean anomaly
97.6518°
Eccentric anomaly
120.94679°
Mean motion
1.47245 °/min
Orbital period
244.49 mins
BSTAR
0.029113
Loading maneuver chart data...
Computing Atmospheric mass density...

Documentation

Showing up to 5 results
|